User: anonymous   Login
Location: Drayton Valley
(53.2170°N, 114.9830°W)
Time: 22:14:07
(UTC-07:00)
Language:

MOZ.5/SAFIR/RUBIN 5/SL-8 - Orbit

View from above orbital plane
View from above orbital plane
View from above satellite
View from above satellite

Ground track
Ground track

The orbit data is extracted from the following two-line orbital elements,

1 28898U 05043G   14329.14621095  .00000541  00000-0  12244-3 0  9866
2 28898 097.8350 149.8429 0018986 247.3044 248.9441 14.59645339483402
Epoch (UTC): 25 November 2014 03:30:32
Eccentricity: 0.0018986
inclination: 97.8350°
perigee height: 681 km
apogee height: 708 km
right ascension of ascending node: 149.8429°
argument of perigee: 247.3044°
revolutions per day: 14.59645339
mean anomaly at epoch: 248.9441°
orbit number at epoch: 48340

The dashed part of the orbit path shows where the satellite is in the earth's shadow,  

DLR